User: anonymous   Login
Location: Caltech
(34.1382°N, 118.1253°W)
Time: 03:15:57
(UTC-07:00)
Language:

Cosmos 2360 Rocket - Orbit

View from above orbital plane
View from above orbital plane
View from above satellite
View from above satellite

Ground track
Ground track

The orbit data is extracted from the following two-line orbital elements,

1 25407U 98045B   16207.86736894 -.00000259  00000-0 -10772-3 0  9999
2 25407  71.0103   7.1740 0008658 329.7566  30.3056 14.15747055929990
Epoch (UTC): 25 July 2016 20:49:00
Eccentricity: 0.0008658
inclination: 71.0103°
perigee height: 833 km
apogee height: 846 km
right ascension of ascending node: 7.1740°
argument of perigee: 329.7566°
revolutions per day: 14.15747055
mean anomaly at epoch: 30.3056°
orbit number at epoch: 92999

The dashed part of the orbit path shows where the satellite is in the earth's shadow,  

DLR